BREEZE-M DEB (TANK), 41390

Orbit data source: Space-Track

BREEZE-M DEB (TANK), 41390 is space debris in HEO originally from a launch on Mon, 14 Mar 2016 UTC launched from the Tyuratam Missile And Space Complex (TTMTR). Debris objects in space refer to the collection of defunct objects orbiting the Earth. Examples of debris include non-operational satellites, rocket bodies, and fragments generated from explosions, collisions, or faulty payload assembly.

Loading next visibility...
Identifier
41390, 2016-017C
Orbit
HEO
Country
Flag of CISCIS
Related business
Manufacturer
Khrunichev
Mission
Spacecraft
Bus & Motor
BRIZ TANK, Unknown motor
Mass
~1,000 kg wet, 1,000 kg dry
Launch date (UTC)
2016-03-14 (10 years ago)
Launch vehicle
Unknown
Launch site
Tyuratam Missile And Space Complex (TTMTR)
Object type
Payload
Rocket body
Debris
Shape & HBR
Torus, 2.0 m
Radar Cross Section
8.218 m², Large (>1 m²)

Expand to show TLE details & history
Last TLE update: 6 days ago

TLE from 6 days ago
0 BREEZE-M DEB (TANK)
1 41390U 16017C   26167.23463655 -.00000032  00000-0 -92994-4 0  9992
2 41390  51.5945  71.8741 5967709 284.5889  19.4183  3.82675176143383
Epoch: 2026-06-16T05:37Z
TLE epoch observation values (Epoch: 2026-06-16T05:37:52.597Z)
Latitude
-0.00004°
Longitude
82.90477°
Altitude
3,306.788 km
Speed
7.697 km/s
True Right ascension
04h 47m 32s
True Declination
0° 00' 00"
Sunlit
Object was in daylight at epoch
Visualization orbit readout
Latitude
Unknown
Longitude
Unknown
Altitude
Unknown
Speed
Unknown
Apparent Right ascension
Unknown
Apparent Declination
Unknown
Sunlit
N/A
Visualization observer readout
Local Sidereal Time
21:34:55
Azimuth
Unknown
Elevation
Unknown
Doppler factor
Unknown
Orbital elements
Apogee altitude
21,191.708 km
Perigee altitude
584.016 km
Semi-major axis
17,265.999 km
Eccentricity
0.59677
Inclination
51.5945°
RAAN
71.8741°
Arg. of periapsis
284.5889°
True anomaly
75.51637°
Mean anomaly
19.4183°
Eccentric anomaly
42.53283°
Mean motion
0.95666 °/min
Orbital period
376.31 mins
BSTAR
-0.000092994
Loading maneuver chart data...
Computing Atmospheric mass density...
Loading historical data...
Loading historical data...
Loading historical data...
Loading historical data...
Loading historical data...
Loading historical data...
Loading historical data...
Other satellites on launch #17 in the year 2016 (2016-03-14 UTC)

Documentation

Showing up to 5 results
|